This is the latest recevied weather packets stored in our database for station/object OK2ZAW-21. If no packets are shown the sender has not sent any weather packets the latest 10 day(s).
| Time | Temp. | Humidity | Pressure | Rain* | Wind** | Luminosity | Snow |
|---|---|---|---|---|---|---|---|
| 1788708040 | 21.67° C | 42% | 1029.8 hPa | - | - | 421 W/m² | - |
| 1788707729 | 22.22° C | 42% | 1029.9 hPa | - | - | 421 W/m² | - |
| 1788707417 | 22.22° C | 41% | 1029.5 hPa | - | - | 421 W/m² | - |
| 1788707106 | 21.67° C | 44% | 1029.8 hPa | - | - | 421 W/m² | - |
| 1788706795 | 21.67° C | 43% | 1029.8 hPa | - | - | 421 W/m² | - |
| 1788706483 | 20° C | 46% | 1029.8 hPa | - | - | 421 W/m² | - |
| 1788706172 | 20° C | 46% | 1029.8 hPa | - | - | 421 W/m² | - |
| 1788705860 | 22.22° C | 42% | 1029.8 hPa | - | - | 421 W/m² | - |
| 1788705549 | 21.11° C | 45% | 1029.8 hPa | - | - | 421 W/m² | - |
| 1788705238 | 21.11° C | 44% | 1029.8 hPa | - | - | 421 W/m² | - |
| 1788704926 | 20° C | 47% | 1029.7 hPa | - | - | 421 W/m² | - |
| 1788704615 | 20.56° C | 46% | 1029.8 hPa | - | - | 422 W/m² | - |
| 1788704303 | 20° C | 47% | 1029.8 hPa | - | - | 421 W/m² | - |
| 1788703992 | 19.44° C | 48% | 1029.7 hPa | - | - | 422 W/m² | - |
| 1788703681 | 20° C | 47% | 1029.8 hPa | - | - | 421 W/m² | - |
| 1788703369 | 20° C | 48% | 1029.8 hPa | - | - | 422 W/m² | - |
| 1788703058 | 20° C | 48% | 1029.6 hPa | - | - | 422 W/m² | - |
| 1788702837 | 20° C | 47% | 1029.6 hPa | - | - | 422 W/m² | - |
| 1788702747 | 20° C | 47% | 1029.6 hPa | - | - | 422 W/m² | - |
| 1788702435 | 19.44° C | 49% | 1029.6 hPa | - | - | 422 W/m² | - |
| 1788702124 | 19.44° C | 48% | 1029.6 hPa | - | - | 422 W/m² | - |
| 1788701813 | 18.89° C | 49% | 1029.6 hPa | - | - | 422 W/m² | - |
| 1788701501 | 21.11° C | 44% | 1029.6 hPa | - | - | 422 W/m² | - |
| 1788701190 | 21.11° C | 45% | 1029.6 hPa | - | - | 422 W/m² | - |
| 1788700879 | 19.44° C | 48% | 1029.8 hPa | - | - | 422 W/m² | - |
* Rain since midnight (hover to see other rain measurements)
** Current wind speed in m/s (hover to see current wind gust speed)